Weather in Yamsk

Russia / Magadan District     59°35′06″N   154°08′36″E
temp.,
°C
wind,
m/s
gust,
m/s
humid.,
%
clouds,
%
prec.,
mm/h
press.,
hPa
HPBL,
m
20 september, mon
mon2023:00+8ssw1193100 0.1 100529
02:00+8s2293100 0.1 100447
05:00+8ese1192100 0.1 100332
08:00+8e2293100 0.5 100282
11:00+10e4579100 1.4 1001660
14:00+8ene5993100 2.6 999406
17:00+8e5795100 5.9 999365
20:00+7sse359075 0.4 1001189
21 september, tue
tue2123:00+7se228573 0.4 100270
02:00+6ene338337 0.0 1002151
05:00+6ne3590100 0.0 1004285
08:00+8n4791100 0.1 1005374
11:00+8nne81396100 2.6 1005890
14:00+8n71393100 3.7 1005995
17:00+8ne101495100 8.2 1006726
20:00+8ne121692100 3.4 10081224
22 september, wed
wed2223:00+8ne141891100 7.8 10091266
02:00+8ne141894100 3.6 10101248
05:00+8ne131793100 9.0 10111227
08:00+8ne131794100 5.5 10121256
11:00+8ne141795100 10.7 1013996
14:00+8ne121595100 2.8 1014878
17:00+8ne121594100 3.8 1016852
20:00+8ne121594100 0.9 1017837
23 september, thu
thu2323:00+8ne111493100 1.8 1019785
02:00+8ne81293100 0.4 1020767
05:00+8nne71193100 0.8 1021739
08:00+8nne5992100 0.3 1022541
11:00+9nne358984 0.4 1022418
14:00+9nne228219 0.0 1022366
17:00+9se01795 0.0 1021220
20:00+8ssw32835 0.0 102120
24 september, fri
fri2423:00+7wsw22865 0.0 102135
02:00+6w11840 0.0 102052
05:00+5wnw11820 0.0 102060
08:00+6wnw11790 0.0 102076
11:00+9w11680 0.0 1020223
14:00+11wsw01620 0.0 1019377
17:00+11s11670 0.0 101921
20:00+8ssw337656 0.0 102040